Theta_e
308 308 309 309 310 311 313 317 319 319 319 318 314 312 311 311 311 311 314 318 318 317 317 330 339 347 347 347 349 349 351 354 349 351 348 345 344 345 347 349 350 350 352 352 351
305 305 306 306 307 308 309 310 313 315 318 319 318 315 312 311 311 315 318 318 317 316 324 332 339 344 345 345 347 349 350 353 347 349 347 348 345 343 346 348 349 350 352 351 351
303 303 303 303 304 304 305 306 309 309 313 316 320 318 315 312 318 320 320 319 318 316 323 331 335 341 342 343 345 347 348 348 344 344 346 346 349 346 343 349 347 350 352 350 351
301 302 302 303 303 303 304 305 306 307 311 313 316 319 317 313 323 329 319 319 318 317 323 329 334 338 341 344 343 347 344 345 344 343 344 346 348 348 346 342 346 348 350 350 350
301 301 302 302 303 303 304 305 306 306 312 314 315 316 316 320 318 319 317 319 320 318 323 327 332 336 341 340 342 345 344 343 346 344 343 346 348 349 347 344 345 347 350 350 350
301 302 302 302 303 303 304 305 305 306 312 315 316 315 315 323 322 319 320 319 321 323 324 327 331 335 338 339 341 341 342 342 344 343 341 344 347 347 348 346 346 347 349 349 349
301 302 302 302 303 303 304 304 305 308 312 316 317 315 320 323 321 316 321 324 326 327 326 329 330 335 337 339 338 340 342 342 344 343 342 341 346 347 348 348 348 349 347 348 348
302 302 302 303 303 303 304 304 306 309 312 315 316 314 323 324 323 318 319 326 330 331 329 329 331 333 335 337 337 340 341 344 342 339 341 341 346 345 349 350 350 349 347 347 347
301 302 302 302 303 303 304 305 308 311 312 316 318 321 327 323 320 322 319 323 331 331 331 329 330 333 334 337 338 336 339 341 341 339 341 340 345 343 348 350 350 350 349 346 347
301 301 302 302 302 303 304 309 311 315 322 321 324 323 323 324 323 320 321 323 328 333 332 332 332 335 336 338 337 335 335 337 339 340 340 341 343 347 348 348 350 351 350 348 346
301 302 302 302 302 303 308 312 314 322 321 324 326 323 326 325 321 318 323 325 328 333 335 332 335 336 332 337 337 335 334 336 338 340 340 342 342 344 346 347 346 349 350 349 347
301 301 302 302 304 307 310 310 310 308 311 311 312 314 322 325 325 320 322 326 331 336 334 332 335 332 331 331 335 335 335 335 335 338 340 341 344 344 344 346 346 347 350 349 349
301 301 302 302 307 309 310 308 308 309 311 312 314 315 316 322 326 325 320 325 331 335 332 329 331 330 327 328 331 335 335 334 335 336 340 339 342 341 342 341 345 344 349 349 350
301 301 301 302 307 308 310 307 308 309 314 317 319 318 317 318 324 326 319 326 331 336 331 328 328 327 327 328 328 328 331 333 333 336 341 338 342 341 340 341 342 342 346 349 349
301 301 301 306 308 310 307 307 308 310 316 321 320 319 319 319 324 325 323 324 327 328 332 328 327 327 327 327 328 328 329 331 332 334 337 338 341 341 341 341 341 342 342 346 348
301 301 301 307 308 308 307 307 309 315 317 322 320 320 321 320 323 326 324 321 325 327 329 329 327 328 328 328 328 328 328 329 330 332 335 337 340 341 340 342 341 342 342 343 348
302 303 304 306 307 306 307 308 312 312 318 322 321 322 322 323 323 327 327 323 324 326 327 328 329 328 328 328 328 327 327 328 329 332 333 333 336 339 338 338 340 341 342 342 346
302 306 308 307 306 306 307 311 311 312 317 317 317 318 320 323 325 326 327 328 323 325 328 328 328 329 327 328 328 328 327 328 331 330 330 332 335 337 337 336 337 339 340 342 344
303 308 308 306 306 306 309 310 310 313 313 313 315 320 322 323 324 326 325 327 327 325 327 330 330 329 328 328 329 329 329 328 329 330 330 330 332 333 335 336 336 336 338 341 343
307 308 309 305 306 308 312 310 310 310 310 311 312 317 321 323 324 325 326 326 328 327 328 330 332 330 328 328 328 330 329 328 329 332 332 331 332 333 334 334 335 336 338 338 342
309 308 308 305 307 309 309 309 309 307 308 309 310 313 316 317 320 324 326 325 325 328 328 330 333 334 331 329 329 329 330 329 329 329 331 333 332 333 334 334 334 336 335 336 338
309 311 307 306 309 309 308 308 307 308 308 308 310 312 313 315 319 322 324 324 319 323 328 329 331 334 332 329 329 329 330 331 333 333 330 332 333 333 333 333 334 334 335 335 337
309 309 308 306 309 309 308 307 308 309 308 308 309 311 313 315 319 320 322 320 318 323 327 329 331 334 335 331 330 330 329 330 330 330 333 331 333 332 332 332 333 334 334 335 337
309 310 309 307 307 308 308 307 307 307 307 307 309 310 311 313 314 318 320 319 317 319 317 322 329 333 336 335 331 330 330 330 331 333 332 333 332 332 332 332 335 335 334 336 338
308 309 308 310 309 308 307 307 307 307 307 307 309 309 309 312 314 315 317 318 319 318 322 324 330 331 332 334 332 331 330 330 331 332 332 332 333 333 332 333 333 333 334 334 335
307 307 306 307 307 307 307 308 307 306 306 307 308 307 308 310 312 311 314 316 317 319 320 322 326 330 333 332 331 330 331 330 330 330 331 331 333 334 333 331 332 332 332 331 332
304 304 306 306 307 308 308 307 307 307 306 307 307 307 307 309 309 310 310 311 313 315 316 319 324 330 333 332 330 331 331 332 331 331 331 332 332 333 333 333 332 331 332 332 332
Wind_Speed
18 18 18 19 19 19 19 19 20 20 20 20 19 20 19 19 20 21 26 17 14 17 14 16 20 21 19 20 19 13 12 5 15 19 21 11 13 10 12 17 10 4 22 30 33
19 19 19 20 20 21 21 21 20 21 21 20 20 19 18 19 21 26 27 22 21 17 17 24 28 25 25 22 21 16 1 9 4 19 7 11 15 11 13 13 14 16 27 30 32
21 21 21 21 21 22 22 23 22 24 22 21 20 18 15 14 17 23 19 21 23 21 21 23 24 25 25 20 23 19 12 25 7 8 4 17 18 8 14 12 16 22 30 34 34
24 25 25 24 23 23 24 24 25 26 22 21 20 15 12 7 6 3 6 11 21 28 24 26 27 28 25 23 22 17 12 19 6 7 6 11 20 13 4 17 18 21 30 35 34
26 26 27 26 27 26 27 26 25 24 24 23 19 13 10 12 23 17 9 4 17 28 31 31 31 30 25 23 20 19 18 11 11 6 5 4 12 13 12 9 19 22 28 33 31
27 28 28 28 29 29 30 27 26 23 23 21 15 12 12 20 11 16 13 13 17 30 31 31 30 30 26 25 22 15 19 14 16 13 12 11 11 10 18 15 20 23 27 30 30
28 29 30 30 30 31 31 29 26 22 20 17 13 12 15 26 9 10 17 17 18 27 28 28 27 26 29 18 21 24 13 18 12 17 10 13 14 17 23 19 23 24 26 28 30
31 31 31 31 31 31 31 29 25 23 18 14 8 10 13 7 22 14 16 20 20 22 23 24 25 25 30 21 13 18 20 16 20 19 17 15 18 20 21 23 23 25 26 28 30
31 32 34 33 32 31 25 27 26 21 14 5 3 11 12 12 19 24 21 25 25 22 21 20 25 20 26 19 15 18 18 23 21 22 15 17 7 13 25 24 24 26 27 28 29
32 32 32 32 33 30 27 22 25 17 9 3 7 8 17 13 15 22 25 25 29 25 22 20 23 18 19 20 19 23 24 22 22 19 19 17 18 27 23 24 25 26 27 28 30
31 32 33 33 30 26 27 20 9 5 9 18 9 18 5 10 8 20 28 25 29 29 23 29 19 26 30 28 25 22 22 25 22 16 20 19 18 20 23 22 20 26 27 29 30
31 32 31 30 24 25 20 14 10 11 19 27 38 36 29 11 14 20 31 28 29 27 26 18 29 27 25 27 28 27 24 22 22 15 13 19 20 18 16 21 21 23 28 29 29
31 32 31 26 15 18 11 17 16 15 11 23 34 33 33 31 20 28 40 37 31 30 32 28 20 27 27 25 27 27 27 21 18 20 19 15 19 18 20 17 23 20 28 28 32
30 30 30 26 8 16 9 21 18 12 7 9 10 10 31 26 21 30 41 42 19 33 31 30 25 29 27 28 26 27 26 23 19 19 17 22 16 20 18 20 18 24 28 31 32
30 29 24 19 13 13 19 21 17 5 7 11 10 4 12 32 13 36 40 44 26 23 29 31 24 22 29 25 27 24 21 23 22 18 17 19 19 18 25 23 23 21 26 31 33
27 26 21 11 12 14 22 20 7 8 11 5 6 8 12 30 30 28 37 44 39 26 27 29 24 23 21 25 22 22 20 21 22 18 19 25 20 18 16 25 27 25 28 27 33
25 20 12 9 14 20 19 14 8 11 3 13 12 13 11 17 25 19 32 32 30 30 30 28 32 23 23 23 23 20 20 13 16 18 17 25 23 19 18 19 19 19 29 28 30
26 17 9 10 18 17 15 12 14 20 13 21 19 23 21 21 21 26 27 27 36 31 18 22 24 34 22 28 25 27 25 16 22 19 18 24 27 24 25 13 18 28 27 30 30
24 12 5 15 16 13 14 11 14 13 18 20 26 22 16 21 9 25 28 28 31 34 31 25 30 33 30 25 27 23 27 26 23 23 15 20 24 26 23 27 20 17 28 31 33
21 16 4 20 14 10 11 15 16 14 18 18 19 18 24 18 9 17 27 25 28 35 32 28 19 30 32 25 29 28 24 23 18 22 20 16 16 17 21 18 25 25 20 29 32
16 13 7 17 10 14 10 11 18 20 20 13 22 25 19 21 26 21 18 3 6 14 32 32 23 17 27 28 28 25 22 27 21 18 15 12 9 18 19 22 22 21 35 29 30
14 6 16 15 16 3 7 9 11 16 14 14 17 24 20 20 17 16 17 9 14 14 19 37 13 21 31 28 27 27 29 28 17 24 18 12 2 11 10 8 17 23 27 34 31
17 19 5 15 7 10 13 15 10 11 9 8 9 10 22 15 8 13 11 8 11 13 8 5 15 17 23 25 26 31 31 25 27 19 20 16 6 8 6 2 16 18 25 27 28
13 6 12 11 10 10 13 13 16 10 7 11 8 11 17 18 14 10 12 9 7 9 16 10 17 24 19 25 23 29 31 30 25 20 18 20 15 12 6 7 5 7 16 22 21
8 6 8 7 12 14 11 16 13 8 7 14 1 8 11 9 19 12 11 13 12 2 8 7 15 20 26 13 11 30 31 31 31 24 25 15 19 14 13 13 13 13 9 6 6
9 7 12 19 15 12 12 12 12 8 12 15 5 10 9 12 13 8 16 10 7 13 10 8 12 19 22 18 7 13 22 31 29 28 23 23 15 17 13 11 8 9 9 6 6
15 16 9 9 9 11 10 11 16 19 12 9 14 14 13 11 11 16 21 24 17 14 12 12 10 11 15 18 11 17 21 19 26 26 25 21 19 11 9 8 4 7 7 6 8
Wind_Direction
0 355 349 343 337 331 323 312 304 300 297 295 288 283 281 280 277 276 258 238 235 221 203 192 189 197 204 218 231 255 271 127 256 40 116 137 103 87 90 128 130 85 137 149 154
355 351 347 342 336 330 326 322 313 306 301 293 288 283 285 286 283 270 258 249 233 211 206 192 192 196 208 219 225 236 331 274 291 167 95 127 121 115 132 138 132 116 130 149 155
354 351 347 341 334 328 325 320 313 313 305 298 287 280 283 293 300 274 244 240 226 209 202 201 201 202 218 220 221 234 245 230 112 31 209 140 122 143 117 157 150 136 148 155 159
356 353 348 343 336 329 321 317 314 316 307 302 289 279 271 256 258 51 253 212 216 206 199 204 206 207 220 221 224 238 258 260 99 122 264 152 134 139 195 134 154 150 159 162 167
356 352 349 345 340 333 324 319 316 314 306 301 285 267 253 235 245 277 261 221 202 194 198 201 208 208 217 224 221 226 260 219 247 231 234 260 140 145 146 141 149 155 164 171 174
354 350 347 345 340 336 328 322 319 310 309 303 283 244 225 248 253 231 230 219 200 186 197 201 208 211 222 230 216 218 231 252 234 210 186 224 170 200 153 156 152 162 172 177 181
353 350 347 346 341 337 331 325 320 315 311 306 281 231 233 235 230 223 207 202 194 186 199 204 208 211 224 235 238 229 251 228 225 235 216 219 189 188 157 169 163 168 175 181 186
354 351 349 347 342 339 333 328 324 318 308 302 266 203 247 259 233 224 205 201 198 196 208 205 209 219 225 241 230 220 229 220 213 217 213 205 209 176 162 173 174 174 178 183 188
355 352 351 349 345 341 341 336 332 321 318 299 126 205 258 226 223 215 206 201 196 199 204 204 209 220 220 236 225 214 221 223 221 204 204 207 171 305 171 180 179 182 182 184 187
355 352 352 350 347 344 341 336 322 314 352 267 249 216 237 229 224 203 197 198 197 195 201 207 210 207 227 211 220 214 216 217 222 193 207 198 241 182 170 180 186 185 186 188 190
352 351 349 349 349 348 359 351 332 250 254 251 206 244 310 201 184 193 186 187 195 197 201 199 201 213 211 218 223 235 212 230 202 185 199 222 221 187 171 187 199 178 190 193 193
351 350 350 352 353 6 14 30 11 317 296 270 260 253 242 234 211 196 185 189 191 199 197 188 217 213 218 213 223 234 242 215 231 200 202 209 222 205 244 184 199 193 189 196 191
351 349 349 355 1 2 358 357 332 322 270 283 245 236 225 221 225 197 189 197 194 196 198 204 214 216 209 216 214 225 232 232 221 218 215 226 228 223 225 208 188 210 188 197 194
349 347 348 353 348 347 342 336 331 322 279 256 200 231 212 205 231 219 198 194 192 206 203 220 223 195 212 216 213 220 222 236 237 232 211 205 233 212 218 201 197 200 195 192 198
348 344 349 354 335 348 331 330 321 291 278 112 127 150 194 193 165 202 196 202 209 203 209 210 215 195 209 210 214 227 213 222 237 242 249 233 220 238 198 211 198 205 202 194 197
345 341 341 344 332 319 328 324 304 236 239 160 119 193 196 207 244 178 189 207 216 212 215 225 211 222 214 213 213 214 229 221 220 234 238 231 239 220 225 204 208 190 206 200 194
343 339 348 359 328 328 327 315 250 242 216 19 357 328 265 209 223 194 189 195 206 213 213 213 226 212 224 208 200 207 207 206 217 216 226 226 232 234 230 220 203 209 197 199 196
345 353 336 349 329 325 324 280 258 283 5 350 328 308 278 271 209 214 196 203 212 211 212 211 214 220 199 214 198 206 209 214 210 216 222 228 230 226 236 246 229 199 208 198 193
346 352 341 334 335 328 301 275 275 345 355 334 324 297 256 225 257 212 210 213 206 218 219 203 224 193 213 210 212 195 215 217 239 215 234 215 218 238 229 223 219 240 203 198 190
346 327 272 341 331 314 268 273 347 355 328 325 301 289 325 342 226 248 218 223 221 209 232 243 216 221 199 206 215 226 205 216 229 248 224 233 242 208 209 223 213 207 211 216 186
344 314 343 335 316 272 305 344 338 332 316 324 309 302 304 307 318 280 252 79 298 234 220 238 249 239 206 203 198 206 211 212 228 231 241 241 240 222 202 202 216 217 211 213 207
321 312 335 343 290 336 321 339 290 289 325 325 316 285 280 298 298 299 311 60 354 313 280 215 233 237 202 199 211 208 216 200 221 215 237 262 117 32 159 208 190 215 210 209 203
323 306 330 346 355 334 336 327 310 339 344 305 310 338 303 298 301 336 310 6 341 309 357 190 225 220 238 190 198 220 208 218 211 232 211 227 172 121 117 279 190 195 212 205 202
311 309 340 310 333 318 330 305 309 295 322 308 323 330 338 301 268 278 312 321 325 336 327 299 244 226 217 198 192 207 216 212 217 217 221 209 231 121 104 156 138 187 193 194 199
299 315 344 305 333 328 324 292 300 335 322 310 1 327 336 311 307 347 328 287 278 33 295 268 239 236 250 255 218 198 216 213 217 215 223 204 208 167 135 129 143 139 128 126 152
295 334 321 305 307 296 282 307 311 316 318 307 312 319 300 296 280 299 304 339 337 341 334 309 267 251 250 243 228 261 230 219 213 223 221 231 228 190 168 145 151 162 183 171 200
304 282 293 273 291 303 299 317 314 308 306 312 307 313 305 302 286 277 264 281 289 292 302 303 270 235 231 235 229 238 232 237 224 212 224 222 227 230 168 181 200 230 260 240 227